Regional Weather Roundup
Issued by NWS Memphis, TN

Home | Current Version | Previous Version | Text Only | Print | Product List | Glossary On
Versions: 1 2 3 4 5 6 7 8 9 10 11 12 13 14 15 16 17 18 19 20 21 22 23 24 25 26 27 28 29 30 31 32 33 34 35 36 37 38 39 40 41 42 43 44 45 46 47 48 49 50
000
ASUS44 KMEG 301310
RWRMEG
MEMPHIS CWA HOURLY WEATHER ROUNDUP
NATIONAL WEATHER SERVICE MEMPHIS TN
700 AM CST FRI JAN 30 2015

...WEST TENNESSEE...

CITY           SKY/WX    TMP DP  RH WIND       PRES   REMARKS
MEMPHIS INTL   PTCLDY    36  27  69 N9        30.47R WCI  29
NWS MEMPHIS      N/A     33 N/A N/A MISG        N/A
JACKSON        CLOUDY    36  25  64 NE8       30.46R WCI  30
LEXINGTON      CLOUDY    34  23  64 N9        30.43R WCI  26
SAVANNAH       CLOUDY    36  25  64 N7        30.45R WCI  30
DYERSBURG      MOCLDY    34  16  47 N6        30.51R WCI  29
UNION CITY     CLOUDY    30  25  80 N10       30.47R WCI  21
PARIS          CLOUDY    32  23  69 N12       30.46R WCI  23


...EASTERN ARKANSAS...

CITY           SKY/WX    TMP DP  RH WIND       PRES   REMARKS
JONESBORO      CLEAR     28  26  92 NW5       30.50R WCI  23
WEST MEMPHIS   CLEAR     32  28  85 N5        30.48R WCI  27
BATESVILLE     CLEAR     30  25  80 NW6       30.52R WCI  24
NEWPORT        CLEAR     28  25  89 NW8       30.53R WCI  20
WALNUT RIDGE   CLEAR     27  19  74 NW8       30.51R WCI  18
BLYTHEVILLE    CLEAR     27  24  89 N6        30.50R WCI  20
SEARCY         CLEAR     30  26  85 NW3       30.52S
STUTTGART      CLEAR     34  27  75 N12       30.49S WCI  25
PINE BLUFF     CLEAR     35  27  72 N14       30.50R WCI  26
MONTICELLO     CLEAR     36  29  75 VRB3      30.48R


...NORTH MISSISSIPPI...

CITY           SKY/WX    TMP DP  RH WIND       PRES   REMARKS
TUPELO         CLEAR     36  27  69 N7        30.44R WCI  30
OXFORD         CLEAR     27  25  93 CALM      30.46R
OLIVE BRANCH   PTCLDY    34  30  86 NE7       30.47R WCI  28
TUNICA         CLEAR     32  30  93 N8        30.49R WCI  25
CLARKSDALE     CLEAR     34  30  86 N13       30.48R WCI  25
CORINTH        MOCLDY    37  27  65 N7        30.45R WCI  32
GRENADA        PTCLDY    28  27  93 NW5       30.46R WCI  23
GREENWOOD      PTCLDY    35  30  82 N5        30.46R WCI  31
COLUMBUS       CLEAR     34  27  75 NW5       30.42R WCI  30
STARKVILLE     FAIR      34  30  86 N3        30.42S
GOLDEN TRIANGL CLEAR     36  27  69 N7        30.41R WCI  30


...SOUTHEAST MISSOURI...

CITY           SKY/WX    TMP DP  RH WIND       PRES   REMARKS
WEST PLAINS    CLEAR     25  19  78 N6        30.48R WCI  18
POPLAR BLUFF   CLEAR     29  22  75 N8        30.49R WCI  21
CAPE GIRARDEAU CLEAR     31  24  75 N10       30.50R WCI  22


...NORTHWEST ALABAMA...

CITY           SKY/WX    TMP DP  RH WIND       PRES   REMARKS
MUSCLE SHOALS  MOCLDY    39  26  59 N8        30.43R WCI  33


...MIDDLE TENNESSEE...

CITY           SKY/WX    TMP DP  RH WIND       PRES   REMARKS
NASHVILLE      CLOUDY    35  23  61 N17G29    30.44R WCI  25
CLARKSVILLE    CLOUDY    34  25  69 N9        30.46R WCI  27
COLUMBIA       CLOUDY    36  27  69 N6        30.41R WCI  31


...WESTERN KENTUCKY...

CITY           SKY/WX    TMP DP  RH WIND       PRES   REMARKS
PADUCAH        PTCLDY    33  22  63 N13       30.49R WCI  24
FORT CAMPBELL  CLOUDY    34  24  67 N9        30.46R WCI  26


...CENTRAL ARKANSAS...

CITY           SKY/WX    TMP DP  RH WIND       PRES   REMARKS
LITTLE ROCK    PTCLDY    33  25  72 N8        30.50S WCI  26


SKY/WX REPORTED AS FAIR MEANS FEW OR NO CLOUDS BELOW
12 THOUSAND FEET.




USA.gov is the U.S. government's official web portal to all federal, state and local government web resources and services.